Time,TemperatureF,DewpointF,PressureIn,WindDirection,WindDirectionDegrees,WindSpeedMPH,WindSpeedGustMPH,Humidity,HourlyPrecipIn,Conditions,Clouds,dailyrainin,SolarRadiationWatts/m^2,SoftwareType,DateUTC
2013-08-03 00:04:00,68.5,63.5,29.82,WSW,249,4.0,8.1,84,0.00,CLR,,0.00,0.0,WeatherDisplay:10.37,2013-08-02 22:04:00,
2013-08-03 00:09:00,68.5,63.5,29.82,WSW,250,3.5,5.8,84,0.00,CLR,,0.00,0.0,WeatherDisplay:10.37,2013-08-02 22:09:00,
2013-08-03 00:14:00,68.5,63.5,29.82,WSW,248,4.7,6.0,84,0.00,CLR,,0.00,0.0,WeatherDisplay:10.37,2013-08-02 22:14:00,
2013-08-03 00:19:00,68.5,63.8,29.82,WSW,241,3.9,5.0,85,0.00,CLR,,0.00,0.0,WeatherDisplay:10.37,2013-08-02 22:19:00,
2013-08-03 00:24:00,68.4,63.7,29.82,WSW,241,0.0,0.0,85,0.00,CLR,,0.00,0.0,WeatherDisplay:10.37,2013-08-02 22:24:00,
2013-08-03 00:29:00,68.3,63.6,29.82,WSW,241,0.7,3.5,85,0.00,CLR,,0.00,0.0,WeatherDisplay:10.37,2013-08-02 22:29:00,
2013-08-03 00:34:00,68.1,63.4,29.82,WSW,242,4.4,6.9,85,0.00,CLR,,0.00,0.0,WeatherDisplay:10.37,2013-08-02 22:34:00,
2013-08-03 00:39:00,68.0,63.6,29.82,WSW,240,4.2,6.0,86,0.00,CLR,,0.00,0.0,WeatherDisplay:10.37,2013-08-02 22:39:00,
2013-08-03 00:44:00,68.0,64.0,29.82,WSW,240,4.4,6.9,87,0.00,CLR,,0.00,0.0,WeatherDisplay:10.37,2013-08-02 22:44:00,
2013-08-03 00:49:00,67.9,63.9,29.82,WSW,250,4.5,8.1,87,0.00,CLR,,0.00,0.0,WeatherDisplay:10.37,2013-08-02 22:49:00,
2013-08-03 00:54:00,67.9,63.9,29.82,SW,234,3.7,4.6,87,0.00,CLR,,0.00,0.0,WeatherDisplay:10.37,2013-08-02 22:54:00,
2013-08-03 00:59:00,67.8,63.8,29.82,WSW,240,5.1,8.1,87,0.00,CLR,,0.00,0.0,WeatherDisplay:10.37,2013-08-02 22:59:00,
2013-08-03 01:04:00,67.8,63.4,29.82,WSW,241,4.7,5.8,86,0.00,CLR,,0.00,0.0,WeatherDisplay:10.37,2013-08-02 23:04:00,
2013-08-03 01:09:00,67.7,63.3,29.82,WSW,252,4.7,5.8,86,0.00,CLR,,0.00,0.0,WeatherDisplay:10.37,2013-08-02 23:09:00,
2013-08-03 01:14:00,67.7,63.3,29.82,WSW,252,3.1,4.0,86,0.00,CLR,,0.00,0.0,WeatherDisplay:10.37,2013-08-02 23:14:00,
2013-08-03 01:19:00,67.6,63.2,29.82,WSW,248,5.8,6.9,86,0.00,CLR,,0.00,0.0,WeatherDisplay:10.37,2013-08-02 23:19:00,
2013-08-03 01:24:00,67.5,63.1,29.83,WSW,254,4.2,7.0,86,0.00,CLR,,0.00,0.0,WeatherDisplay:10.37,2013-08-02 23:24:00,
2013-08-03 01:29:00,67.5,63.1,29.83,WSW,244,3.6,6.9,86,0.00,CLR,,0.00,0.0,WeatherDisplay:10.37,2013-08-02 23:29:00,
2013-08-03 01:34:00,67.4,63.0,29.83,WSW,244,3.8,4.6,86,0.00,CLR,,0.00,0.0,WeatherDisplay:10.37,2013-08-02 23:34:00,
2013-08-03 01:39:00,67.4,63.0,29.83,WSW,244,4.7,6.0,86,0.00,CLR,,0.00,0.0,WeatherDisplay:10.37,2013-08-02 23:39:00,
2013-08-03 01:44:00,67.3,62.9,29.84,WSW,247,6.7,6.9,86,0.00,CLR,,0.00,0.0,WeatherDisplay:10.37,2013-08-02 23:44:00,
2013-08-03 01:49:00,67.2,62.8,29.84,SW,234,4.6,4.6,86,0.00,CLR,,0.00,0.0,WeatherDisplay:10.37,2013-08-02 23:49:00,
2013-08-03 01:54:00,67.3,62.9,29.84,SW,232,3.3,8.1,86,0.00,CLR,,0.00,0.0,WeatherDisplay:10.37,2013-08-02 23:54:00,
2013-08-03 01:59:00,67.2,62.8,29.84,SW,231,3.7,5.8,86,0.00,CLR,,0.00,0.0,WeatherDisplay:10.37,2013-08-02 23:59:00,
2013-08-03 02:04:00,67.3,62.9,29.84,SW,231,5.9,8.1,86,0.00,CLR,,0.00,0.0,WeatherDisplay:10.37,2013-08-03 00:04:00,
2013-08-03 02:09:00,67.3,62.9,29.84,WSW,237,4.6,8.1,86,0.00,CLR,,0.00,0.0,WeatherDisplay:10.37,2013-08-03 00:09:00,
2013-08-03 02:14:00,67.2,62.8,29.84,WSW,242,3.5,6.9,86,0.00,CLR,,0.00,0.0,WeatherDisplay:10.37,2013-08-03 00:14:00,
2013-08-03 02:19:00,67.1,62.8,29.84,WSW,238,3.5,4.6,86,0.00,CLR,,0.00,0.0,WeatherDisplay:10.37,2013-08-03 00:19:00,
2013-08-03 02:24:00,67.1,62.8,29.84,WSW,240,5.4,6.0,86,0.00,CLR,,0.00,0.0,WeatherDisplay:10.37,2013-08-03 00:24:00,
2013-08-03 02:29:00,67.1,62.8,29.84,WSW,239,5.8,6.9,86,0.00,CLR,,0.00,0.0,WeatherDisplay:10.37,2013-08-03 00:29:00,
2013-08-03 02:34:00,67.1,62.8,29.84,SW,234,2.7,4.6,86,0.00,CLR,,0.00,0.0,WeatherDisplay:10.37,2013-08-03 00:34:00,
2013-08-03 02:39:00,67.0,62.7,29.83,SW,234,1.1,3.5,86,0.00,CLR,,0.00,0.0,WeatherDisplay:10.37,2013-08-03 00:39:00,
2013-08-03 02:44:00,67.0,62.7,29.84,SW,234,0.0,0.0,86,0.00,CLR,,0.00,0.0,WeatherDisplay:10.37,2013-08-03 00:44:00,
2013-08-03 02:49:00,67.0,62.7,29.83,SW,234,0.6,0.0,86,0.00,CLR,,0.00,0.0,WeatherDisplay:10.37,2013-08-03 00:49:00,
2013-08-03 02:54:00,67.0,62.7,29.84,SW,234,2.4,3.5,86,0.00,CLR,,0.00,0.0,WeatherDisplay:10.37,2013-08-03 00:54:00,
2013-08-03 02:59:00,67.0,62.7,29.84,SW,234,0.5,4.6,86,0.00,CLR,,0.00,0.0,WeatherDisplay:10.37,2013-08-03 00:59:00,
2013-08-03 03:04:00,67.0,62.7,29.85,SW,234,1.4,3.5,86,0.00,CLR,,0.00,0.0,WeatherDisplay:10.37,2013-08-03 01:04:00,
2013-08-03 03:09:00,67.0,62.7,29.85,SW,234,0.0,0.0,86,0.00,CLR,,0.00,0.0,WeatherDisplay:10.37,2013-08-03 01:09:00,
2013-08-03 03:14:00,66.9,62.6,29.85,SW,234,2.2,5.8,86,0.00,CLR,,0.00,0.0,WeatherDisplay:10.37,2013-08-03 01:14:00,
2013-08-03 03:19:00,66.9,62.6,29.84,SW,234,0.0,1.2,86,0.00,CLR,,0.00,0.0,WeatherDisplay:10.37,2013-08-03 01:19:00,
2013-08-03 03:24:00,66.8,62.5,29.84,SW,234,0.0,2.3,86,0.00,CLR,,0.00,0.0,WeatherDisplay:10.37,2013-08-03 01:24:00,
2013-08-03 03:29:00,66.8,62.8,29.86,SW,234,4.2,5.8,87,0.00,CLR,,0.00,0.0,WeatherDisplay:10.37,2013-08-03 01:29:00,
2013-08-03 03:34:00,66.9,62.9,29.86,SW,236,4.2,8.1,87,0.00,CLR,,0.00,0.0,WeatherDisplay:10.37,2013-08-03 01:34:00,
2013-08-03 03:39:00,66.8,62.8,29.86,SW,236,6.5,9.2,87,0.00,CLR,,0.00,0.0,WeatherDisplay:10.37,2013-08-03 01:39:00,
2013-08-03 03:44:00,66.8,62.8,29.86,WSW,240,6.8,9.2,87,0.00,CLR,,0.00,0.0,WeatherDisplay:10.37,2013-08-03 01:44:00,
2013-08-03 03:45:00,66.9,62.9,29.86,WSW,240,5.4,10.4,87,0.00,CLR,,0.00,0.0,WeatherDisplay:10.37,2013-08-03 01:45:00,
2013-08-03 03:50:00,66.9,62.6,29.86,SW,230,7.6,11.5,86,0.00,CLR,,0.00,0.0,WeatherDisplay:10.37,2013-08-03 01:50:00,
2013-08-03 03:55:00,67.0,62.7,29.86,WSW,247,6.8,10.0,86,0.00,CLR,,0.00,0.0,WeatherDisplay:10.37,2013-08-03 01:55:00,
2013-08-03 04:00:00,66.9,62.6,29.86,WSW,242,8.1,11.5,86,0.00,CLR,,0.00,0.0,WeatherDisplay:10.37,2013-08-03 02:00:00,
2013-08-03 04:05:00,66.8,62.1,29.85,SW,231,3.9,10.4,85,0.00,CLR,,0.00,0.0,WeatherDisplay:10.37,2013-08-03 02:05:00,
2013-08-03 04:10:00,66.8,62.1,29.86,WSW,244,6.7,10.4,85,0.00,CLR,,0.00,0.0,WeatherDisplay:10.37,2013-08-03 02:10:00,
2013-08-03 04:15:00,66.7,62.0,29.85,WSW,238,6.3,8.1,85,0.00,CLR,,0.00,0.0,WeatherDisplay:10.37,2013-08-03 02:15:00,
2013-08-03 04:20:00,66.6,61.9,29.86,WSW,239,6.3,6.3,85,0.00,CLR,,0.00,0.0,WeatherDisplay:10.37,2013-08-03 02:20:00,
2013-08-03 04:25:00,66.5,61.8,29.85,WSW,239,5.3,6.0,85,0.00,CLR,,0.00,0.0,WeatherDisplay:10.37,2013-08-03 02:25:00,
2013-08-03 04:30:00,66.5,61.8,29.85,SW,233,6.6,8.0,85,0.00,CLR,,0.00,0.0,WeatherDisplay:10.37,2013-08-03 02:30:00,
2013-08-03 04:35:00,66.4,61.7,29.86,SW,234,3.3,6.9,85,0.00,CLR,,0.00,0.0,WeatherDisplay:10.37,2013-08-03 02:35:00,
2013-08-03 04:40:00,66.4,62.1,29.86,SW,233,5.4,8.1,86,0.00,CLR,,0.00,0.0,WeatherDisplay:10.37,2013-08-03 02:40:00,
2013-08-03 04:45:00,66.3,62.0,29.86,SW,233,5.0,6.9,86,0.00,CLR,,0.00,0.0,WeatherDisplay:10.37,2013-08-03 02:45:00,
2013-08-03 04:50:00,66.2,61.9,29.86,SW,233,4.8,6.9,86,0.00,CLR,,0.00,0.0,WeatherDisplay:10.37,2013-08-03 02:50:00,
2013-08-03 04:55:00,66.1,62.1,29.86,SW,233,4.3,8.1,87,0.00,CLR,,0.00,0.0,WeatherDisplay:10.37,2013-08-03 02:55:00,
2013-08-03 05:00:00,66.1,62.1,29.86,SW,227,5.1,6.0,87,0.00,CLR,,0.00,0.0,WeatherDisplay:10.37,2013-08-03 03:00:00,
2013-08-03 05:05:00,66.0,62.0,29.87,SW,234,4.5,9.2,87,0.00,CLR,,0.00,0.0,WeatherDisplay:10.37,2013-08-03 03:05:00,
2013-08-03 05:10:00,65.9,61.9,29.87,SW,234,0.7,3.5,87,0.00,CLR,,0.00,0.0,WeatherDisplay:10.37,2013-08-03 03:10:00,
2013-08-03 05:15:00,65.9,61.9,29.88,SW,234,0.9,2.0,87,0.00,CLR,,0.00,0.0,WeatherDisplay:10.37,2013-08-03 03:15:00,
2013-08-03 05:20:00,65.8,61.8,29.88,SW,234,2.5,4.0,87,0.00,CLR,,0.00,0.0,WeatherDisplay:10.37,2013-08-03 03:20:00,
2013-08-03 05:25:00,65.6,61.6,29.89,SW,234,0.0,0.0,87,0.00,CLR,,0.00,0.0,WeatherDisplay:10.37,2013-08-03 03:25:00,
2013-08-03 05:30:00,65.4,61.4,29.89,SW,234,0.0,0.0,87,0.00,CLR,,0.00,0.0,WeatherDisplay:10.37,2013-08-03 03:30:00,
2013-08-03 05:35:00,65.3,61.3,29.89,SW,234,0.0,0.0,87,0.00,CLR,,0.00,0.0,WeatherDisplay:10.37,2013-08-03 03:35:00,
2013-08-03 05:40:00,65.1,61.4,29.89,SW,234,0.0,0.0,88,0.00,CLR,,0.00,0.0,WeatherDisplay:10.37,2013-08-03 03:40:00,
2013-08-03 05:45:00,65.1,61.4,29.89,SW,234,0.0,0.0,88,0.00,CLR,,0.00,0.0,WeatherDisplay:10.37,2013-08-03 03:45:00,
2013-08-03 05:50:00,65.0,61.3,29.89,SW,234,0.0,0.0,88,0.00,CLR,,0.00,0.0,WeatherDisplay:10.37,2013-08-03 03:50:00,
2013-08-03 05:55:00,65.0,61.3,29.89,SW,234,0.8,1.0,88,0.00,CLR,,0.00,0.0,WeatherDisplay:10.37,2013-08-03 03:55:00,
2013-08-03 06:00:00,65.0,61.7,29.89,SW,234,0.0,0.0,89,0.00,CLR,,0.00,0.0,WeatherDisplay:10.37,2013-08-03 04:00:00,
2013-08-03 06:01:00,65.1,61.4,29.89,SW,234,0.0,0.0,88,0.00,CLR,,0.00,0.0,WeatherDisplay:10.37,2013-08-03 04:01:00,
2013-08-03 06:02:00,65.1,61.8,29.89,SW,234,0.0,0.0,89,0.00,CLR,,0.00,0.0,WeatherDisplay:10.37,2013-08-03 04:02:00,
2013-08-03 06:07:00,65.1,61.4,29.90,SW,234,0.0,0.0,88,0.00,CLR,,0.00,0.0,WeatherDisplay:10.37,2013-08-03 04:07:00,
2013-08-03 06:12:00,65.1,61.1,29.90,SW,234,0.0,0.0,87,0.00,CLR,,0.00,0.0,WeatherDisplay:10.37,2013-08-03 04:12:00,
2013-08-03 06:17:00,65.2,61.5,29.90,SW,234,0.0,0.0,88,0.00,CLR,,0.00,0.0,WeatherDisplay:10.37,2013-08-03 04:17:00,
2013-08-03 06:22:00,65.2,61.2,29.90,SW,234,0.0,0.0,87,0.00,CLR,,0.00,0.0,WeatherDisplay:10.37,2013-08-03 04:22:00,
2013-08-03 06:27:00,65.2,61.5,29.90,SW,234,0.0,0.0,88,0.00,CLR,,0.00,0.0,WeatherDisplay:10.37,2013-08-03 04:27:00,
2013-08-03 06:32:00,65.3,61.6,29.90,SW,233,0.0,0.0,88,0.00,FEW,,0.00,0.0,WeatherDisplay:10.37,2013-08-03 04:32:00,
2013-08-03 06:37:00,65.3,61.3,29.90,SW,230,0.0,0.0,87,0.00,FEW,,0.00,0.0,WeatherDisplay:10.37,2013-08-03 04:37:00,
2013-08-03 06:42:00,65.4,61.4,29.90,SW,231,0.0,0.0,87,0.00,FEW,,0.00,5.0,WeatherDisplay:10.37,2013-08-03 04:42:00,
2013-08-03 06:47:00,65.4,61.4,29.90,SW,231,0.0,0.0,87,0.00,FEW,,0.00,5.0,WeatherDisplay:10.37,2013-08-03 04:47:00,
2013-08-03 06:52:00,65.5,61.5,29.90,SW,230,0.0,0.0,87,0.00,FEW,,0.00,0.0,WeatherDisplay:10.37,2013-08-03 04:52:00,
2013-08-03 06:57:00,65.6,61.6,29.90,SW,230,0.0,0.0,87,0.00,FEW,,0.00,5.0,WeatherDisplay:10.37,2013-08-03 04:57:00,
2013-08-03 07:02:00,65.8,61.8,29.90,SW,231,1.2,3.0,87,0.00,SCT,,0.00,9.0,WeatherDisplay:10.37,2013-08-03 05:02:00,
2013-08-03 07:07:00,66.1,62.1,29.90,WSW,240,4.7,10.4,87,0.00,SCT,,0.00,23.0,WeatherDisplay:10.37,2013-08-03 05:07:00,
2013-08-03 07:12:00,66.5,62.2,29.90,WSW,246,6.0,11.5,86,0.00,SCT,,0.00,44.0,WeatherDisplay:10.37,2013-08-03 05:12:00,
2013-08-03 07:17:00,66.9,61.9,29.90,SW,216,9.3,12.7,84,0.00,SCT,,0.00,32.0,WeatherDisplay:10.37,2013-08-03 05:17:00,
2013-08-03 07:22:00,67.2,62.2,29.90,SW,236,8.5,11.5,84,0.00,SCT,,0.00,25.0,WeatherDisplay:10.37,2013-08-03 05:22:00,
2013-08-03 07:27:00,67.3,61.9,29.90,SW,234,8.2,11.5,83,0.00,SCT,,0.00,33.0,WeatherDisplay:10.37,2013-08-03 05:27:00,
2013-08-03 07:32:00,67.3,61.9,29.90,WSW,242,7.3,9.2,83,0.00,BKN,,0.00,76.0,WeatherDisplay:10.37,2013-08-03 05:32:00,
2013-08-03 07:37:00,67.2,61.8,29.90,SW,231,7.0,11.5,83,0.00,BKN,,0.00,79.0,WeatherDisplay:10.37,2013-08-03 05:37:00,
2013-08-03 07:42:00,67.3,61.9,29.90,WSW,237,7.1,10.4,83,0.00,BKN,,0.00,128.0,WeatherDisplay:10.37,2013-08-03 05:42:00,
2013-08-03 07:47:00,67.4,62.4,29.90,WSW,248,5.5,10.4,84,0.00,BKN,,0.00,149.0,WeatherDisplay:10.37,2013-08-03 05:47:00,
2013-08-03 07:52:00,67.6,62.6,29.91,WSW,246,5.3,8.1,84,0.00,BKN,,0.00,186.0,WeatherDisplay:10.37,2013-08-03 05:52:00,
2013-08-03 07:57:00,67.8,62.8,29.90,SW,219,8.7,12.7,84,0.00,BKN,,0.00,204.0,WeatherDisplay:10.37,2013-08-03 05:57:00,
2013-08-03 08:02:00,67.9,62.5,29.91,WSW,243,8.8,13.0,83,0.00,BKN,,0.00,223.0,WeatherDisplay:10.37,2013-08-03 06:02:00,
2013-08-03 08:08:00,68.0,62.3,29.91,SW,233,9.5,16.1,82,0.00,BKN,,0.00,244.0,WeatherDisplay:10.37,2013-08-03 06:08:00,
2013-08-03 08:13:00,68.1,62.4,29.91,West,265,10.7,15.0,82,0.00,BKN,,0.00,137.0,WeatherDisplay:10.37,2013-08-03 06:13:00,
2013-08-03 08:18:00,68.1,62.4,29.91,SW,235,12.9,18.4,82,0.00,OVC,,0.00,220.0,WeatherDisplay:10.37,2013-08-03 06:18:00,
2013-08-03 08:23:00,68.0,62.3,29.91,SW,224,7.7,12.7,82,0.00,BKN,,0.00,248.0,WeatherDisplay:10.37,2013-08-03 06:23:00,
2013-08-03 08:28:00,68.0,62.3,29.92,SW,219,8.2,9.2,82,0.00,OVC,,0.00,54.0,WeatherDisplay:10.37,2013-08-03 06:28:00,
2013-08-03 08:33:00,68.0,62.3,29.92,SW,234,8.5,11.5,82,0.00,FEW,,0.00,274.0,WeatherDisplay:10.37,2013-08-03 06:33:00,
2013-08-03 08:38:00,68.1,62.4,29.92,SW,230,5.3,10.4,82,0.00,FEW,,0.00,294.0,WeatherDisplay:10.37,2013-08-03 06:38:00,
2013-08-03 08:43:00,68.3,62.6,29.92,WSW,238,8.0,9.2,82,0.00,FEW,,0.00,306.0,WeatherDisplay:10.37,2013-08-03 06:43:00,
2013-08-03 08:47:00,68.5,62.1,29.92,SW,236,8.6,12.7,80,0.00,FEW,,0.00,323.0,WeatherDisplay:10.37,2013-08-03 06:47:00,
2013-08-03 08:53:00,68.7,61.9,29.93,WSW,256,5.9,15.0,79,0.00,FEW,,0.00,334.0,WeatherDisplay:10.37,2013-08-03 06:53:00,
2013-08-03 08:57:00,68.8,62.0,29.93,WSW,237,11.0,16.1,79,0.00,FEW,,0.00,350.0,WeatherDisplay:10.37,2013-08-03 06:57:00,
2013-08-03 09:03:00,68.9,61.7,29.94,SW,232,11.2,14.0,78,0.00,SCT,,0.00,383.0,WeatherDisplay:10.37,2013-08-03 07:03:00,
2013-08-03 09:08:00,69.2,62.0,29.94,SSW,211,9.2,13.0,78,0.00,SCT,,0.00,429.0,WeatherDisplay:10.37,2013-08-03 07:08:00,
2013-08-03 09:13:00,69.3,61.8,29.94,SW,214,11.7,20.7,77,0.00,SCT,,0.00,452.0,WeatherDisplay:10.37,2013-08-03 07:13:00,
2013-08-03 09:18:00,69.4,61.9,29.94,WSW,253,10.0,16.1,77,0.00,SCT,,0.00,494.0,WeatherDisplay:10.37,2013-08-03 07:18:00,
2013-08-03 09:23:00,69.7,62.5,29.94,West,259,7.8,16.1,78,0.00,SCT,,0.00,526.0,WeatherDisplay:10.37,2013-08-03 07:23:00,
2013-08-03 09:29:00,69.6,61.7,29.94,WSW,246,11.0,17.3,76,0.00,OVC,,0.00,169.0,WeatherDisplay:10.37,2013-08-03 07:29:00,
2013-08-03 09:33:00,68.8,59.4,29.95,West,261,11.1,17.3,72,0.00,FEW,,0.00,47.0,WeatherDisplay:10.37,2013-08-03 07:33:00,
2013-08-03 09:39:00,68.0,58.6,29.95,WSW,239,10.1,10.4,72,0.00,FEW,,0.00,450.0,WeatherDisplay:10.37,2013-08-03 07:39:00,
2013-08-03 09:44:00,67.9,58.5,29.96,West,261,14.0,20.7,72,0.00,FEW,,0.00,469.0,WeatherDisplay:10.37,2013-08-03 07:44:00,
2013-08-03 09:49:00,68.3,59.7,29.96,WSW,253,10.1,15.0,74,0.00,FEW,,0.00,522.0,WeatherDisplay:10.37,2013-08-03 07:49:00,
2013-08-03 09:54:00,68.7,60.4,29.96,West,280,7.2,11.5,75,0.00,FEW,,0.00,563.0,WeatherDisplay:10.37,2013-08-03 07:54:00,
2013-08-03 09:59:00,68.7,60.1,29.96,SW,234,9.8,16.0,74,0.00,FEW,,0.00,163.0,WeatherDisplay:10.37,2013-08-03 07:59:00,
2013-08-03 10:04:00,68.4,59.8,29.97,WSW,256,11.3,16.1,74,0.00,SCT,,0.00,199.0,WeatherDisplay:10.37,2013-08-03 08:04:00,
2013-08-03 10:09:00,67.9,59.3,29.97,WSW,253,6.9,13.8,74,0.00,SCT,,0.00,141.0,WeatherDisplay:10.37,2013-08-03 08:09:00,
2013-08-03 10:14:00,68.0,60.1,29.98,SW,234,11.7,16.1,76,0.00,SCT,,0.00,162.0,WeatherDisplay:10.37,2013-08-03 08:14:00,
2013-08-03 10:19:00,68.1,59.9,29.98,SW,217,11.2,13.8,75,0.00,SCT,,0.00,158.0,WeatherDisplay:10.37,2013-08-03 08:19:00,
2013-08-03 10:24:00,68.4,59.8,29.98,SW,221,11.8,12.7,74,0.00,SCT,,0.00,624.0,WeatherDisplay:10.37,2013-08-03 08:24:00,
2013-08-03 10:29:00,69.0,60.3,29.98,WSW,255,10.2,20.7,74,0.00,SCT,,0.00,622.0,WeatherDisplay:10.37,2013-08-03 08:29:00,
2013-08-03 10:34:00,69.3,60.3,29.98,WSW,244,12.5,17.3,73,0.00,BKN,,0.00,712.0,WeatherDisplay:10.37,2013-08-03 08:34:00,
2013-08-03 10:39:00,69.1,59.3,29.99,SW,226,10.9,19.6,71,0.00,BKN,,0.00,724.0,WeatherDisplay:10.37,2013-08-03 08:39:00,
2013-08-03 10:44:00,69.4,60.0,29.99,WSW,251,12.6,19.6,72,0.00,BKN,,0.00,745.0,WeatherDisplay:10.37,2013-08-03 08:44:00,
2013-08-03 10:49:00,69.7,59.5,29.99,WSW,241,12.3,13.8,70,0.00,BKN,,0.00,745.0,WeatherDisplay:10.37,2013-08-03 08:49:00,
2013-08-03 10:54:00,69.7,58.2,29.99,WSW,257,11.9,18.4,67,0.00,BKN,,0.00,740.0,WeatherDisplay:10.37,2013-08-03 08:54:00,
2013-08-03 10:59:00,69.3,56.6,29.99,West,270,14.5,19.6,64,0.00,BKN,,0.00,214.0,WeatherDisplay:10.37,2013-08-03 08:59:00,
2013-08-03 11:04:00,69.0,57.6,29.99,WSW,242,11.0,18.4,67,0.00,SCT,,0.00,213.0,WeatherDisplay:10.37,2013-08-03 09:04:00,
2013-08-03 11:09:00,69.0,58.0,29.99,WSW,252,9.7,14.0,68,0.00,SCT,,0.00,772.0,WeatherDisplay:10.37,2013-08-03 09:09:00,
2013-08-03 11:14:00,69.1,58.1,30.00,SW,231,12.7,16.1,68,0.00,SCT,,0.00,814.0,WeatherDisplay:10.37,2013-08-03 09:14:00,
2013-08-03 11:19:00,69.5,58.9,30.00,WSW,244,11.8,19.6,69,0.00,SCT,,0.00,232.0,WeatherDisplay:10.37,2013-08-03 09:19:00,
2013-08-03 11:24:00,69.6,58.5,30.00,SW,228,11.8,19.6,68,0.00,SCT,,0.00,721.0,WeatherDisplay:10.37,2013-08-03 09:24:00,
2013-08-03 11:29:00,69.7,58.6,30.00,SW,228,9.2,11.5,68,0.00,SCT,,0.00,788.0,WeatherDisplay:10.37,2013-08-03 09:29:00,
2013-08-03 11:34:00,70.0,58.9,30.00,WSW,246,8.3,11.5,68,0.00,FEW,,0.00,828.0,WeatherDisplay:10.37,2013-08-03 09:34:00,
2013-08-03 11:39:00,69.9,57.1,30.00,West,259,10.9,17.3,64,0.00,FEW,,0.00,181.0,WeatherDisplay:10.37,2013-08-03 09:39:00,
2013-08-03 11:44:00,69.4,56.7,30.00,West,266,12.1,17.3,64,0.00,FEW,,0.00,285.0,WeatherDisplay:10.37,2013-08-03 09:44:00,
2013-08-03 11:49:00,69.3,57.4,30.00,SW,233,12.6,19.6,66,0.00,FEW,,0.00,274.0,WeatherDisplay:10.37,2013-08-03 09:49:00,
2013-08-03 11:54:00,69.0,57.6,30.01,WSW,239,11.0,17.3,67,0.00,FEW,,0.00,262.0,WeatherDisplay:10.37,2013-08-03 09:54:00,
2013-08-03 11:59:00,69.0,58.0,30.01,WSW,247,5.2,11.5,68,0.00,FEW,,0.00,151.0,WeatherDisplay:10.37,2013-08-03 09:59:00,
2013-08-03 12:04:00,68.8,57.8,30.01,WSW,252,9.5,16.1,68,0.00,FEW,,0.00,773.0,WeatherDisplay:10.37,2013-08-03 10:04:00,
2013-08-03 12:09:00,69.1,58.1,30.01,SW,225,8.4,20.7,68,0.00,FEW,,0.00,844.0,WeatherDisplay:10.37,2013-08-03 10:09:00,
2013-08-03 12:14:00,69.6,58.1,30.01,West,266,10.9,16.1,67,0.00,FEW,,0.00,269.0,WeatherDisplay:10.37,2013-08-03 10:14:00,
2013-08-03 12:19:00,69.4,57.5,30.01,SW,235,12.0,17.3,66,0.00,FEW,,0.00,329.0,WeatherDisplay:10.37,2013-08-03 10:19:00,
2013-08-03 12:24:00,69.4,57.9,30.02,WSW,248,8.3,18.4,67,0.00,BKN,,0.00,373.0,WeatherDisplay:10.37,2013-08-03 10:24:00,
2013-08-03 12:29:00,69.3,58.3,30.02,WSW,256,10.9,15.0,68,0.00,BKN,,0.00,394.0,WeatherDisplay:10.37,2013-08-03 10:29:00,
2013-08-03 12:34:00,69.0,58.4,30.02,WSW,249,10.2,11.5,69,0.00,BKN,,0.00,436.0,WeatherDisplay:10.37,2013-08-03 10:34:00,
2013-08-03 12:39:00,68.8,58.2,30.03,SW,236,12.8,19.6,69,0.00,BKN,,0.00,408.0,WeatherDisplay:10.37,2013-08-03 10:39:00,
2013-08-03 12:44:00,68.5,57.5,30.03,WSW,248,13.6,23.0,68,0.00,BKN,,0.00,316.0,WeatherDisplay:10.37,2013-08-03 10:44:00,
2013-08-03 12:49:00,68.6,58.0,30.03,West,267,11.1,18.4,69,0.00,BKN,,0.00,831.0,WeatherDisplay:10.37,2013-08-03 10:49:00,
2013-08-03 12:54:00,69.2,58.6,30.03,SW,233,10.7,18.4,69,0.00,BKN,,0.00,860.0,WeatherDisplay:10.37,2013-08-03 10:54:00,
2013-08-03 12:59:00,69.5,58.5,30.03,West,265,9.6,16.1,68,0.00,BKN,,0.00,905.0,WeatherDisplay:10.37,2013-08-03 10:59:00,
2013-08-03 13:04:00,69.2,58.2,30.03,SW,223,9.2,15.0,68,0.00,BKN,,0.00,234.0,WeatherDisplay:10.37,2013-08-03 11:04:00,
2013-08-03 13:09:00,69.1,57.7,30.03,WSW,243,13.7,17.3,67,0.00,BKN,,0.00,865.0,WeatherDisplay:10.37,2013-08-03 11:09:00,
2013-08-03 13:14:00,69.1,57.2,30.03,SW,225,14.1,18.4,66,0.00,BKN,,0.00,854.0,WeatherDisplay:10.37,2013-08-03 11:14:00,
2013-08-03 13:19:00,69.7,57.4,30.04,SW,226,13.4,19.6,65,0.00,BKN,,0.00,831.0,WeatherDisplay:10.37,2013-08-03 11:19:00,
2013-08-03 13:24:00,69.9,57.1,30.04,WSW,257,12.8,19.6,64,0.00,FEW,,0.00,835.0,WeatherDisplay:10.37,2013-08-03 11:24:00,
2013-08-03 13:29:00,69.9,57.1,30.04,WSW,238,12.1,19.0,64,0.00,FEW,,0.00,833.0,WeatherDisplay:10.37,2013-08-03 11:29:00,
2013-08-03 13:34:00,69.9,56.3,30.04,West,264,11.8,19.6,62,0.00,BKN,,0.00,828.0,WeatherDisplay:10.37,2013-08-03 11:34:00,
2013-08-03 13:39:00,70.3,56.6,30.04,SW,223,13.2,17.3,62,0.00,BKN,,0.00,779.0,WeatherDisplay:10.37,2013-08-03 11:39:00,
2013-08-03 13:44:00,70.3,56.2,30.05,WSW,245,16.6,21.9,61,0.00,BKN,,0.00,821.0,WeatherDisplay:10.37,2013-08-03 11:44:00,
2013-08-03 13:49:00,70.1,56.0,30.05,WSW,248,15.1,19.6,61,0.00,BKN,,0.00,867.0,WeatherDisplay:10.37,2013-08-03 11:49:00,
2013-08-03 13:54:00,70.0,56.8,30.05,SSW,200,8.1,19.6,63,0.00,BKN,,0.00,689.0,WeatherDisplay:10.37,2013-08-03 11:54:00,
2013-08-03 13:59:00,70.2,56.5,30.05,WSW,239,12.7,18.4,62,0.00,BKN,,0.00,816.0,WeatherDisplay:10.37,2013-08-03 11:59:00,
2013-08-03 14:04:00,70.3,56.6,30.05,SSW,197,10.1,23.0,62,0.00,FEW,,0.00,817.0,WeatherDisplay:10.37,2013-08-03 12:04:00,
2013-08-03 14:09:00,70.0,56.4,30.05,WSW,254,10.7,19.6,62,0.00,FEW,,0.00,807.0,WeatherDisplay:10.37,2013-08-03 12:09:00,
2013-08-03 14:14:00,70.2,55.6,30.05,WSW,252,12.4,17.3,60,0.00,FEW,,0.00,775.0,WeatherDisplay:10.37,2013-08-03 12:14:00,
2013-08-03 14:19:00,70.5,56.8,30.05,SW,221,10.7,15.0,62,0.00,FEW,,0.00,814.0,WeatherDisplay:10.37,2013-08-03 12:19:00,
2013-08-03 14:24:00,70.9,57.2,30.06,WSW,238,12.1,18.4,62,0.00,FEW,,0.00,807.0,WeatherDisplay:10.37,2013-08-03 12:24:00,
2013-08-03 14:29:00,71.0,58.2,30.06,WSW,238,8.6,17.3,64,0.00,FEW,,0.00,835.0,WeatherDisplay:10.37,2013-08-03 12:29:00,
2013-08-03 14:34:00,71.0,58.2,30.06,SW,234,12.3,18.4,64,0.00,FEW,,0.00,696.0,WeatherDisplay:10.37,2013-08-03 12:34:00,
2013-08-03 14:39:00,71.0,58.2,30.06,WSW,247,9.6,9.6,64,0.00,FEW,,0.00,311.0,WeatherDisplay:10.37,2013-08-03 12:39:00,
2013-08-03 14:44:00,70.8,58.4,30.06,West,259,8.0,12.7,65,0.00,FEW,,0.00,805.0,WeatherDisplay:10.37,2013-08-03 12:44:00,
2013-08-03 14:49:00,70.9,58.1,30.06,SW,235,5.9,9.2,64,0.00,FEW,,0.00,817.0,WeatherDisplay:10.37,2013-08-03 12:49:00,
2013-08-03 14:54:00,71.1,58.7,30.07,WSW,253,13.0,18.4,65,0.00,FEW,,0.00,800.0,WeatherDisplay:10.37,2013-08-03 12:54:00,
2013-08-03 14:59:00,71.1,58.3,30.07,WSW,251,7.7,11.5,64,0.00,FEW,,0.00,810.0,WeatherDisplay:10.37,2013-08-03 12:59:00,
2013-08-03 15:04:00,70.8,58.0,30.07,West,263,12.3,17.3,64,0.00,FEW,,0.00,803.0,WeatherDisplay:10.37,2013-08-03 13:04:00,
2013-08-03 15:09:00,70.6,57.4,30.07,WSW,247,11.0,18.4,63,0.00,FEW,,0.00,779.0,WeatherDisplay:10.37,2013-08-03 13:09:00,
2013-08-03 15:14:00,70.8,57.1,30.07,WSW,245,13.1,19.6,62,0.00,FEW,,0.00,766.0,WeatherDisplay:10.37,2013-08-03 13:14:00,
2013-08-03 15:19:00,70.9,57.7,30.07,WSW,252,9.2,11.5,63,0.00,FEW,,0.00,765.0,WeatherDisplay:10.37,2013-08-03 13:19:00,
2013-08-03 15:24:00,71.1,56.9,30.07,WNW,291,12.3,23.0,61,0.00,FEW,,0.00,773.0,WeatherDisplay:10.37,2013-08-03 13:24:00,
2013-08-03 15:29:00,70.7,57.0,30.07,WSW,253,10.3,19.6,62,0.00,FEW,,0.00,754.0,WeatherDisplay:10.37,2013-08-03 13:29:00,
2013-08-03 15:34:00,70.5,56.8,30.07,WSW,252,11.4,18.4,62,0.00,SCT,,0.00,744.0,WeatherDisplay:10.37,2013-08-03 13:34:00,
2013-08-03 15:39:00,71.0,57.7,30.07,SW,230,8.0,12.7,63,0.00,SCT,,0.00,740.0,WeatherDisplay:10.37,2013-08-03 13:39:00,
2013-08-03 15:44:00,71.3,57.6,30.07,West,261,8.2,13.0,62,0.00,SCT,,0.00,738.0,WeatherDisplay:10.37,2013-08-03 13:44:00,
2013-08-03 15:49:00,71.2,57.9,30.08,SW,215,9.2,17.3,63,0.00,SCT,,0.00,726.0,WeatherDisplay:10.37,2013-08-03 13:49:00,
2013-08-03 15:54:00,71.9,57.7,30.08,SW,236,9.5,13.8,61,0.00,SCT,,0.00,731.0,WeatherDisplay:10.37,2013-08-03 13:54:00,
2013-08-03 15:59:00,71.9,58.2,30.08,West,265,9.3,13.8,62,0.00,SCT,,0.00,715.0,WeatherDisplay:10.37,2013-08-03 13:59:00,
2013-08-03 16:04:00,72.3,58.1,30.08,WSW,257,12.1,19.6,61,0.00,FEW,,0.00,749.0,WeatherDisplay:10.37,2013-08-03 14:04:00,
2013-08-03 16:09:00,71.6,57.9,30.08,West,278,9.1,18.4,62,0.00,FEW,,0.00,752.0,WeatherDisplay:10.37,2013-08-03 14:09:00,
2013-08-03 16:14:00,71.2,57.5,30.08,WSW,258,11.4,19.6,62,0.00,FEW,,0.00,707.0,WeatherDisplay:10.37,2013-08-03 14:14:00,
2013-08-03 16:19:00,71.3,57.1,30.08,SW,227,10.4,18.4,61,0.00,FEW,,0.00,684.0,WeatherDisplay:10.37,2013-08-03 14:19:00,
2013-08-03 16:24:00,71.5,57.8,30.08,WSW,246,10.6,12.7,62,0.00,FEW,,0.00,714.0,WeatherDisplay:10.37,2013-08-03 14:24:00,
2013-08-03 16:29:00,71.6,58.3,30.08,WSW,240,9.6,12.7,63,0.00,FEW,,0.00,719.0,WeatherDisplay:10.37,2013-08-03 14:29:00,
2013-08-03 16:34:00,71.2,57.5,30.08,WSW,248,10.9,15.0,62,0.00,FEW,,0.00,671.0,WeatherDisplay:10.37,2013-08-03 14:34:00,
2013-08-03 16:39:00,71.6,57.4,30.08,WSW,256,9.5,16.1,61,0.00,FEW,,0.00,647.0,WeatherDisplay:10.37,2013-08-03 14:39:00,
2013-08-03 16:44:00,71.2,57.5,30.08,WSW,255,9.7,17.3,62,0.00,FEW,,0.00,645.0,WeatherDisplay:10.37,2013-08-03 14:44:00,
2013-08-03 16:49:00,71.4,57.2,30.08,SW,225,9.6,15.0,61,0.00,FEW,,0.00,628.0,WeatherDisplay:10.37,2013-08-03 14:49:00,
2013-08-03 16:54:00,71.4,56.3,30.08,WSW,250,8.8,15.0,59,0.00,FEW,,0.00,615.0,WeatherDisplay:10.37,2013-08-03 14:54:00,
2013-08-03 16:59:00,71.6,57.0,30.08,WSW,242,7.3,11.5,60,0.00,FEW,,0.00,605.0,WeatherDisplay:10.37,2013-08-03 14:59:00,
2013-08-03 17:04:00,71.6,56.5,30.08,West,267,9.4,11.5,59,0.00,FEW,,0.00,594.0,WeatherDisplay:10.37,2013-08-03 15:04:00,
2013-08-03 17:09:00,71.2,56.6,30.08,SW,236,13.7,18.4,60,0.00,FEW,,0.00,587.0,WeatherDisplay:10.37,2013-08-03 15:09:00,
2013-08-03 17:14:00,71.5,55.9,30.08,WSW,243,12.2,13.8,58,0.00,FEW,,0.00,573.0,WeatherDisplay:10.37,2013-08-03 15:14:00,
2013-08-03 17:19:00,71.8,55.2,30.08,WSW,241,13.3,18.0,56,0.00,FEW,,0.00,564.0,WeatherDisplay:10.37,2013-08-03 15:19:00,
2013-08-03 17:24:00,71.9,55.8,30.08,West,259,8.5,12.7,57,0.00,FEW,,0.00,554.0,WeatherDisplay:10.37,2013-08-03 15:24:00,
2013-08-03 17:29:00,71.7,55.1,30.08,WSW,244,10.5,15.0,56,0.00,FEW,,0.00,545.0,WeatherDisplay:10.37,2013-08-03 15:29:00,
2013-08-03 17:34:00,71.9,55.3,30.08,WSW,242,8.6,11.5,56,0.00,SCT,,0.00,529.0,WeatherDisplay:10.37,2013-08-03 15:34:00,
2013-08-03 17:39:00,71.9,54.3,30.08,WSW,244,7.5,18.4,54,0.00,SCT,,0.00,520.0,WeatherDisplay:10.37,2013-08-03 15:39:00,
2013-08-03 17:44:00,72.1,54.5,30.09,West,260,10.0,17.3,54,0.00,SCT,,0.00,504.0,WeatherDisplay:10.37,2013-08-03 15:44:00,
2013-08-03 17:49:00,72.3,55.2,30.08,WSW,242,9.0,18.4,55,0.00,SCT,,0.00,496.0,WeatherDisplay:10.37,2013-08-03 15:49:00,
2013-08-03 17:54:00,72.5,55.4,30.08,WSW,238,8.2,12.0,55,0.00,SCT,,0.00,480.0,WeatherDisplay:10.37,2013-08-03 15:54:00,
2013-08-03 17:59:00,72.1,56.0,30.08,WSW,238,10.9,16.0,57,0.00,SCT,,0.00,468.0,WeatherDisplay:10.37,2013-08-03 15:59:00,
2013-08-03 18:04:00,71.8,55.7,30.09,SW,222,13.1,20.7,57,0.00,FEW,,0.00,450.0,WeatherDisplay:10.37,2013-08-03 16:04:00,
2013-08-03 18:09:00,71.8,56.2,30.08,WSW,257,9.9,13.8,58,0.00,FEW,,0.00,439.0,WeatherDisplay:10.37,2013-08-03 16:09:00,
2013-08-03 18:14:00,72.0,56.9,30.08,West,273,7.7,12.0,59,0.00,FEW,,0.00,429.0,WeatherDisplay:10.37,2013-08-03 16:14:00,
2013-08-03 18:19:00,71.9,56.8,30.08,SW,230,9.7,11.5,59,0.00,FEW,,0.00,410.0,WeatherDisplay:10.37,2013-08-03 16:19:00,
2013-08-03 18:24:00,71.7,56.6,30.08,SW,218,9.7,15.0,59,0.00,FEW,,0.00,404.0,WeatherDisplay:10.37,2013-08-03 16:24:00,
2013-08-03 18:29:00,72.0,56.9,30.09,WSW,239,9.5,11.5,59,0.00,FEW,,0.00,396.0,WeatherDisplay:10.37,2013-08-03 16:29:00,
2013-08-03 18:34:00,72.0,55.4,30.09,SW,231,12.9,16.1,56,0.00,SCT,,0.00,165.0,WeatherDisplay:10.37,2013-08-03 16:34:00,
2013-08-03 18:39:00,71.3,54.8,30.09,WSW,241,10.2,13.8,56,0.00,FEW,,0.00,371.0,WeatherDisplay:10.37,2013-08-03 16:39:00,
2013-08-03 18:44:00,71.4,54.9,30.09,WSW,258,9.0,11.5,56,0.00,FEW,,0.00,348.0,WeatherDisplay:10.37,2013-08-03 16:44:00,
2013-08-03 18:49:00,71.5,54.5,30.09,WSW,257,6.1,11.5,55,0.00,FEW,,0.00,346.0,WeatherDisplay:10.37,2013-08-03 16:49:00,
2013-08-03 18:54:00,71.8,54.2,30.09,WSW,255,8.8,10.4,54,0.00,FEW,,0.00,332.0,WeatherDisplay:10.37,2013-08-03 16:54:00,
2013-08-03 18:59:00,72.4,55.3,30.09,SW,219,9.9,17.3,55,0.00,FEW,,0.00,316.0,WeatherDisplay:10.37,2013-08-03 16:59:00,
2013-08-03 19:04:00,72.2,55.1,30.09,West,261,7.5,15.0,55,0.00,FEW,,0.00,304.0,WeatherDisplay:10.37,2013-08-03 17:04:00,
2013-08-03 19:09:00,72.0,55.4,30.09,WSW,257,9.4,11.5,56,0.00,FEW,,0.00,290.0,WeatherDisplay:10.37,2013-08-03 17:09:00,
2013-08-03 19:14:00,72.0,55.4,30.09,SW,232,11.2,15.0,56,0.00,FEW,,0.00,276.0,WeatherDisplay:10.37,2013-08-03 17:14:00,
2013-08-03 19:19:00,71.9,55.8,30.09,WSW,252,9.5,11.5,57,0.00,FEW,,0.00,262.0,WeatherDisplay:10.37,2013-08-03 17:19:00,
2013-08-03 19:24:00,71.7,56.1,30.09,WSW,246,6.1,11.5,58,0.00,FEW,,0.00,248.0,WeatherDisplay:10.37,2013-08-03 17:24:00,
2013-08-03 19:29:00,71.8,56.2,30.09,SW,232,5.0,8.1,58,0.00,FEW,,0.00,234.0,WeatherDisplay:10.37,2013-08-03 17:29:00,
2013-08-03 19:34:00,72.0,55.9,30.09,SW,232,7.3,12.7,57,0.00,FEW,,0.00,220.0,WeatherDisplay:10.37,2013-08-03 17:34:00,
2013-08-03 19:39:00,72.0,55.9,30.09,West,259,6.5,10.4,57,0.00,FEW,,0.00,204.0,WeatherDisplay:10.37,2013-08-03 17:39:00,
2013-08-03 19:44:00,71.6,54.6,30.09,SW,220,6.3,11.5,55,0.00,FEW,,0.00,186.0,WeatherDisplay:10.37,2013-08-03 17:44:00,
2013-08-03 19:49:00,71.2,55.2,30.09,WSW,246,6.7,11.5,57,0.00,FEW,,0.00,171.0,WeatherDisplay:10.37,2013-08-03 17:49:00,
2013-08-03 19:54:00,71.2,55.6,30.09,WSW,241,6.6,8.1,58,0.00,FEW,,0.00,156.0,WeatherDisplay:10.37,2013-08-03 17:54:00,
2013-08-03 19:59:00,71.3,55.3,30.09,WSW,249,6.7,11.5,57,0.00,FEW,,0.00,142.0,WeatherDisplay:10.37,2013-08-03 17:59:00,
2013-08-03 20:04:00,71.2,54.7,30.09,SW,234,8.0,12.7,56,0.00,FEW,,0.00,127.0,WeatherDisplay:10.37,2013-08-03 18:04:00,
2013-08-03 20:09:00,71.1,55.1,30.09,SW,233,4.5,8.1,57,0.00,FEW,,0.00,109.0,WeatherDisplay:10.37,2013-08-03 18:09:00,
2013-08-03 20:14:00,71.1,55.1,30.09,WSW,253,7.8,11.5,57,0.00,FEW,,0.00,91.0,WeatherDisplay:10.37,2013-08-03 18:14:00,
2013-08-03 20:19:00,70.7,55.6,30.09,SW,232,5.5,9.0,59,0.00,SCT,,0.00,28.0,WeatherDisplay:10.37,2013-08-03 18:19:00,
2013-08-03 20:24:00,70.5,55.9,30.09,SW,231,5.5,8.1,60,0.00,FEW,,0.00,28.0,WeatherDisplay:10.37,2013-08-03 18:24:00,
2013-08-03 20:29:00,70.3,56.2,30.09,WSW,242,7.0,9.2,61,0.00,FEW,,0.00,33.0,WeatherDisplay:10.37,2013-08-03 18:29:00,
2013-08-03 20:34:00,69.9,56.7,30.09,WSW,238,3.9,5.0,63,0.00,FEW,,0.00,37.0,WeatherDisplay:10.37,2013-08-03 18:34:00,
2013-08-03 20:39:00,69.5,56.8,30.10,WSW,238,5.7,8.1,64,0.00,FEW,,0.00,39.0,WeatherDisplay:10.37,2013-08-03 18:39:00,
2013-08-03 20:44:00,69.1,57.2,30.09,SW,230,3.6,5.8,66,0.00,FEW,,0.00,28.0,WeatherDisplay:10.37,2013-08-03 18:44:00,
2013-08-03 20:49:00,68.8,57.4,30.10,SW,236,4.3,5.8,67,0.00,FEW,,0.00,28.0,WeatherDisplay:10.37,2013-08-03 18:49:00,
2013-08-03 20:54:00,68.4,57.4,30.10,SW,232,3.5,5.8,68,0.00,FEW,,0.00,19.0,WeatherDisplay:10.37,2013-08-03 18:54:00,
2013-08-03 20:59:00,68.1,57.1,30.10,WSW,238,3.2,4.6,68,0.00,FEW,,0.00,18.0,WeatherDisplay:10.37,2013-08-03 18:59:00,
2013-08-03 21:04:00,67.8,57.2,30.10,WSW,242,5.0,8.1,69,0.00,FEW,,0.00,16.0,WeatherDisplay:10.37,2013-08-03 19:04:00,
2013-08-03 21:09:00,67.7,57.5,30.10,WSW,242,1.6,3.5,70,0.00,FEW,,0.00,12.0,WeatherDisplay:10.37,2013-08-03 19:09:00,
2013-08-03 21:14:00,67.5,57.3,30.10,WSW,242,3.6,4.6,70,0.00,FEW,,0.00,11.0,WeatherDisplay:10.37,2013-08-03 19:14:00,
2013-08-03 21:19:00,67.3,57.6,30.10,WSW,241,3.9,5.8,71,0.00,FEW,,0.00,9.0,WeatherDisplay:10.37,2013-08-03 19:19:00,
2013-08-03 21:24:00,67.1,57.7,30.10,WSW,241,1.3,3.5,72,0.00,FEW,,0.00,7.0,WeatherDisplay:10.37,2013-08-03 19:24:00,
2013-08-03 21:29:00,67.0,57.7,30.10,WSW,241,0.0,0.0,72,0.00,CLR,,0.00,5.0,WeatherDisplay:10.37,2013-08-03 19:29:00,
2013-08-03 21:34:00,66.8,57.5,30.10,WSW,241,0.0,0.0,72,0.00,CLR,,0.00,0.0,WeatherDisplay:10.37,2013-08-03 19:34:00,
2013-08-03 21:39:00,66.7,57.7,30.10,WSW,241,0.0,0.0,73,0.00,CLR,,0.00,0.0,WeatherDisplay:10.37,2013-08-03 19:39:00,
2013-08-03 21:44:00,66.4,57.5,30.11,WSW,241,0.0,0.0,73,0.00,CLR,,0.00,0.0,WeatherDisplay:10.37,2013-08-03 19:44:00,
2013-08-03 21:49:00,66.1,57.2,30.11,WSW,241,0.0,0.0,73,0.00,CLR,,0.00,0.0,WeatherDisplay:10.37,2013-08-03 19:49:00,
2013-08-03 21:54:00,65.8,57.3,30.11,WSW,241,0.0,0.0,74,0.00,CLR,,0.00,0.0,WeatherDisplay:10.37,2013-08-03 19:54:00,
2013-08-03 21:59:00,65.5,57.3,30.11,WSW,241,0.0,0.0,75,0.00,CLR,,0.00,0.0,WeatherDisplay:10.37,2013-08-03 19:59:00,
2013-08-03 22:04:00,65.3,57.2,30.11,WSW,241,0.0,0.0,75,0.00,CLR,,0.00,0.0,WeatherDisplay:10.37,2013-08-03 20:04:00,
2013-08-03 22:09:00,65.1,57.3,30.11,WSW,241,0.0,0.0,76,0.00,CLR,,0.00,0.0,WeatherDisplay:10.37,2013-08-03 20:09:00,
2013-08-03 22:14:00,64.9,57.1,30.11,WSW,241,0.0,0.0,76,0.00,CLR,,0.00,0.0,WeatherDisplay:10.37,2013-08-03 20:14:00,
2013-08-03 22:19:00,64.8,57.4,30.11,WSW,241,0.0,0.0,77,0.00,CLR,,0.00,0.0,WeatherDisplay:10.37,2013-08-03 20:19:00,
2013-08-03 22:24:00,64.6,57.2,30.11,WSW,241,0.0,0.0,77,0.00,CLR,,0.00,0.0,WeatherDisplay:10.37,2013-08-03 20:24:00,
2013-08-03 22:29:00,64.5,57.5,30.11,WSW,241,0.0,0.0,78,0.00,CLR,,0.00,0.0,WeatherDisplay:10.37,2013-08-03 20:29:00,
2013-08-03 22:34:00,64.3,57.3,30.11,WSW,241,0.0,0.0,78,0.00,CLR,,0.00,0.0,WeatherDisplay:10.37,2013-08-03 20:34:00,
2013-08-03 22:39:00,64.2,57.2,30.11,WSW,241,0.0,0.0,78,0.00,CLR,,0.00,0.0,WeatherDisplay:10.37,2013-08-03 20:39:00,
2013-08-03 22:44:00,64.1,57.4,30.11,WSW,241,0.0,0.0,79,0.00,CLR,,0.00,0.0,WeatherDisplay:10.37,2013-08-03 20:44:00,
2013-08-03 22:49:00,63.9,57.6,30.11,WSW,241,0.0,0.0,80,0.00,CLR,,0.00,0.0,WeatherDisplay:10.37,2013-08-03 20:49:00,
2013-08-03 22:54:00,63.6,57.3,30.11,WSW,241,0.0,0.0,80,0.00,CLR,,0.00,0.0,WeatherDisplay:10.37,2013-08-03 20:54:00,
2013-08-03 22:59:00,63.5,57.2,30.11,WSW,241,0.0,0.0,80,0.00,CLR,,0.00,0.0,WeatherDisplay:10.37,2013-08-03 20:59:00,
2013-08-03 23:04:00,63.3,57.3,30.12,WSW,241,0.0,0.0,81,0.00,CLR,,0.00,0.0,WeatherDisplay:10.37,2013-08-03 21:04:00,
2013-08-03 23:09:00,63.2,57.3,30.12,WSW,241,0.0,0.0,81,0.00,CLR,,0.00,0.0,WeatherDisplay:10.37,2013-08-03 21:09:00,
2013-08-03 23:14:00,63.0,57.1,30.12,WSW,241,0.0,0.0,81,0.00,CLR,,0.00,0.0,WeatherDisplay:10.37,2013-08-03 21:14:00,
2013-08-03 23:19:00,62.9,57.0,30.12,WSW,241,0.0,0.0,81,0.00,CLR,,0.00,0.0,WeatherDisplay:10.37,2013-08-03 21:19:00,
2013-08-03 23:24:00,62.7,57.1,30.12,WSW,241,0.0,0.0,82,0.00,CLR,,0.00,0.0,WeatherDisplay:10.37,2013-08-03 21:24:00,
2013-08-03 23:29:00,62.7,57.1,30.12,WSW,241,0.0,0.0,82,0.00,CLR,,0.00,0.0,WeatherDisplay:10.37,2013-08-03 21:29:00,
2013-08-03 23:34:00,62.6,57.3,30.12,WSW,241,0.0,0.0,83,0.00,CLR,,0.00,0.0,WeatherDisplay:10.37,2013-08-03 21:34:00,
2013-08-03 23:39:00,62.6,57.3,30.12,WSW,241,0.0,0.0,83,0.00,CLR,,0.00,0.0,WeatherDisplay:10.37,2013-08-03 21:39:00,
2013-08-03 23:44:00,62.5,57.2,30.12,WSW,241,0.0,0.0,83,0.00,CLR,,0.00,0.0,WeatherDisplay:10.37,2013-08-03 21:44:00,
2013-08-03 23:49:00,62.5,57.6,30.12,WSW,241,0.0,0.0,84,0.00,CLR,,0.00,0.0,WeatherDisplay:10.37,2013-08-03 21:49:00,
2013-08-03 23:54:00,62.4,57.5,30.12,WSW,241,0.0,0.0,84,0.00,CLR,,0.00,0.0,WeatherDisplay:10.37,2013-08-03 21:54:00,
2013-08-03 23:59:00,62.4,57.5,30.12,WSW,241,0.0,0.0,84,0.00,CLR,,0.00,0.0,WeatherDisplay:10.37,2013-08-03 21:59:00,